owner,sensor,date,latitude,longitude,air_pressure(mBar),qcFlag 
COMPS,ioos:station:USF.COMPS:ARP:1,2014-07-01T00:00:00Z,28.4330,-82.6670,1013.77,1111122 
COMPS,ioos:station:USF.COMPS:ARP:1,2014-07-01T00:06:00Z,28.4330,-82.6670,1013.77,1111122 
COMPS,ioos:station:USF.COMPS:ARP:1,2014-07-01T00:12:00Z,28.4330,-82.6670,1013.98,1111122 
COMPS,ioos:station:USF.COMPS:ARP:1,2014-07-01T00:18:00Z,28.4330,-82.6670,1014.18,1111122 
COMPS,ioos:station:USF.COMPS:ARP:1,2014-07-01T00:24:00Z,28.4330,-82.6670,1014.21,1111122 
COMPS,ioos:station:USF.COMPS:ARP:1,2014-07-01T00:30:00Z,28.4330,-82.6670,1014.12,1111122 
COMPS,ioos:station:USF.COMPS:ARP:1,2014-07-01T00:36:00Z,28.4330,-82.6670,1014.34,1111122 
COMPS,ioos:station:USF.COMPS:ARP:1,2014-07-01T00:42:00Z,28.4330,-82.6670,1014.38,1111122 
COMPS,ioos:station:USF.COMPS:ARP:1,2014-07-01T00:48:00Z,28.4330,-82.6670,1014.37,1111122 
COMPS,ioos:station:USF.COMPS:ARP:1,2014-07-01T00:54:00Z,28.4330,-82.6670,1014.45,1111122 
COMPS,ioos:station:USF.COMPS:ARP:1,2014-07-01T01:00:00Z,28.4330,-82.6670,1014.56,1111122 
COMPS,ioos:station:USF.COMPS:ARP:1,2014-07-01T01:06:00Z,28.4330,-82.6670,1014.68,1111122 
COMPS,ioos:station:USF.COMPS:ARP:1,2014-07-01T01:12:00Z,28.4330,-82.6670,1014.65,1111122 
COMPS,ioos:station:USF.COMPS:ARP:1,2014-07-01T01:18:00Z,28.4330,-82.6670,1014.72,1111122 
COMPS,ioos:station:USF.COMPS:ARP:1,2014-07-01T01:24:00Z,28.4330,-82.6670,1014.78,1111122 
COMPS,ioos:station:USF.COMPS:ARP:1,2014-07-01T01:30:00Z,28.4330,-82.6670,1015.29,1111122 
COMPS,ioos:station:USF.COMPS:ARP:1,2014-07-01T01:36:00Z,28.4330,-82.6670,1015.41,1111122 
COMPS,ioos:station:USF.COMPS:ARP:1,2014-07-01T01:42:00Z,28.4330,-82.6670,1015.96,1111122 
COMPS,ioos:station:USF.COMPS:ARP:1,2014-07-01T01:48:00Z,28.4330,-82.6670,1016.24,1111122 
COMPS,ioos:station:USF.COMPS:ARP:1,2014-07-01T01:54:00Z,28.4330,-82.6670,1015.8,1111122 
COMPS,ioos:station:USF.COMPS:ARP:1,2014-07-01T02:00:00Z,28.4330,-82.6670,1015.53,1111122 
COMPS,ioos:station:USF.COMPS:ARP:1,2014-07-01T02:06:00Z,28.4330,-82.6670,1015.36,1111122 
COMPS,ioos:station:USF.COMPS:ARP:1,2014-07-01T02:12:00Z,28.4330,-82.6670,1015.44,1111122 
COMPS,ioos:station:USF.COMPS:ARP:1,2014-07-01T02:18:00Z,28.4330,-82.6670,1015.68,1111122 
COMPS,ioos:station:USF.COMPS:ARP:1,2014-07-01T02:24:00Z,28.4330,-82.6670,1015.42,1111122 
COMPS,ioos:station:USF.COMPS:ARP:1,2014-07-01T02:30:00Z,28.4330,-82.6670,1015.17,1111122 
COMPS,ioos:station:USF.COMPS:ARP:1,2014-07-01T02:36:00Z,28.4330,-82.6670,1015.21,1111122 
COMPS,ioos:station:USF.COMPS:ARP:1,2014-07-01T02:42:00Z,28.4330,-82.6670,1015.22,1111122 
COMPS,ioos:station:USF.COMPS:ARP:1,2014-07-01T02:48:00Z,28.4330,-82.6670,1015.22,1111122 
COMPS,ioos:station:USF.COMPS:ARP:1,2014-07-01T02:54:00Z,28.4330,-82.6670,1015.21,1111122 
COMPS,ioos:station:USF.COMPS:ARP:1,2014-07-01T03:00:00Z,28.4330,-82.6670,1015.06,1111122 
COMPS,ioos:station:USF.COMPS:ARP:1,2014-07-01T03:06:00Z,28.4330,-82.6670,1014.96,1111122 
COMPS,ioos:station:USF.COMPS:ARP:1,2014-07-01T03:12:00Z,28.4330,-82.6670,1014.92,1111122 
COMPS,ioos:station:USF.COMPS:ARP:1,2014-07-01T03:18:00Z,28.4330,-82.6670,1014.86,1111122 
COMPS,ioos:station:USF.COMPS:ARP:1,2014-07-01T03:24:00Z,28.4330,-82.6670,1014.94,1111122 
COMPS,ioos:station:USF.COMPS:ARP:1,2014-07-01T03:30:00Z,28.4330,-82.6670,1014.93,1111122 
COMPS,ioos:station:USF.COMPS:ARP:1,2014-07-01T03:36:00Z,28.4330,-82.6670,1014.94,1111122 
COMPS,ioos:station:USF.COMPS:ARP:1,2014-07-01T03:42:00Z,28.4330,-82.6670,1014.94,1111122 
COMPS,ioos:station:USF.COMPS:ARP:1,2014-07-01T03:48:00Z,28.4330,-82.6670,1014.82,1111122 
COMPS,ioos:station:USF.COMPS:ARP:1,2014-07-01T03:54:00Z,28.4330,-82.6670,1014.8,1111122 
COMPS,ioos:station:USF.COMPS:ARP:1,2014-07-01T04:00:00Z,28.4330,-82.6670,1014.81,1111122 
COMPS,ioos:station:USF.COMPS:ARP:1,2014-07-01T04:06:00Z,28.4330,-82.6670,1014.81,1111122 
COMPS,ioos:station:USF.COMPS:ARP:1,2014-07-01T04:12:00Z,28.4330,-82.6670,1014.85,1111122 
COMPS,ioos:station:USF.COMPS:ARP:1,2014-07-01T04:18:00Z,28.4330,-82.6670,1014.94,1111122 
COMPS,ioos:station:USF.COMPS:ARP:1,2014-07-01T04:24:00Z,28.4330,-82.6670,1014.76,1111122 
COMPS,ioos:station:USF.COMPS:ARP:1,2014-07-01T04:30:00Z,28.4330,-82.6670,1014.68,1111122 
COMPS,ioos:station:USF.COMPS:ARP:1,2014-07-01T04:36:00Z,28.4330,-82.6670,1014.68,1111122 
COMPS,ioos:station:USF.COMPS:ARP:1,2014-07-01T04:42:00Z,28.4330,-82.6670,1014.74,1111122 
COMPS,ioos:station:USF.COMPS:ARP:1,2014-07-01T04:48:00Z,28.4330,-82.6670,1014.7,1111122 
COMPS,ioos:station:USF.COMPS:ARP:1,2014-07-01T04:54:00Z,28.4330,-82.6670,1014.68,1111122 
COMPS,ioos:station:USF.COMPS:ARP:1,2014-07-01T05:00:00Z,28.4330,-82.6670,1014.72,1111122 
COMPS,ioos:station:USF.COMPS:ARP:1,2014-07-01T05:06:00Z,28.4330,-82.6670,1014.68,1111122 
COMPS,ioos:station:USF.COMPS:ARP:1,2014-07-01T05:12:00Z,28.4330,-82.6670,1014.53,1111122 
COMPS,ioos:station:USF.COMPS:ARP:1,2014-07-01T05:18:00Z,28.4330,-82.6670,1014.54,1111122 
COMPS,ioos:station:USF.COMPS:ARP:1,2014-07-01T05:24:00Z,28.4330,-82.6670,1014.53,1111122 
COMPS,ioos:station:USF.COMPS:ARP:1,2014-07-01T05:30:00Z,28.4330,-82.6670,1014.34,1111122 
COMPS,ioos:station:USF.COMPS:ARP:1,2014-07-01T05:36:00Z,28.4330,-82.6670,1014.17,1111122 
COMPS,ioos:station:USF.COMPS:ARP:1,2014-07-01T05:42:00Z,28.4330,-82.6670,1014.13,1111122 
COMPS,ioos:station:USF.COMPS:ARP:1,2014-07-01T05:48:00Z,28.4330,-82.6670,1014.14,1111122 
COMPS,ioos:station:USF.COMPS:ARP:1,2014-07-01T05:54:00Z,28.4330,-82.6670,1014.13,1111122 
COMPS,ioos:station:USF.COMPS:ARP:1,2014-07-01T06:00:00Z,28.4330,-82.6670,1014.06,1111122 
COMPS,ioos:station:USF.COMPS:ARP:1,2014-07-01T06:06:00Z,28.4330,-82.6670,1014.05,1111122 
COMPS,ioos:station:USF.COMPS:ARP:1,2014-07-01T06:12:00Z,28.4330,-82.6670,1013.86,1111122 
COMPS,ioos:station:USF.COMPS:ARP:1,2014-07-01T06:18:00Z,28.4330,-82.6670,1013.69,1111122 
COMPS,ioos:station:USF.COMPS:ARP:1,2014-07-01T06:24:00Z,28.4330,-82.6670,1013.48,1111122 
COMPS,ioos:station:USF.COMPS:ARP:1,2014-07-01T06:30:00Z,28.4330,-82.6670,1013.45,1111122 
COMPS,ioos:station:USF.COMPS:ARP:1,2014-07-01T06:36:00Z,28.4330,-82.6670,1013.41,1111122 
COMPS,ioos:station:USF.COMPS:ARP:1,2014-07-01T06:42:00Z,28.4330,-82.6670,1013.42,1111122 
COMPS,ioos:station:USF.COMPS:ARP:1,2014-07-01T06:48:00Z,28.4330,-82.6670,1013.48,1111122 
COMPS,ioos:station:USF.COMPS:ARP:1,2014-07-01T06:54:00Z,28.4330,-82.6670,1013.45,1111122 
COMPS,ioos:station:USF.COMPS:ARP:1,2014-07-01T07:00:00Z,28.4330,-82.6670,1013.34,1111122 
COMPS,ioos:station:USF.COMPS:ARP:1,2014-07-01T07:06:00Z,28.4330,-82.6670,1013.24,1111122 
COMPS,ioos:station:USF.COMPS:ARP:1,2014-07-01T07:12:00Z,28.4330,-82.6670,1013.22,1111122 
COMPS,ioos:station:USF.COMPS:ARP:1,2014-07-01T07:18:00Z,28.4330,-82.6670,1013.26,1111122 
COMPS,ioos:station:USF.COMPS:ARP:1,2014-07-01T07:24:00Z,28.4330,-82.6670,1013.38,1111122 
COMPS,ioos:station:USF.COMPS:ARP:1,2014-07-01T07:30:00Z,28.4330,-82.6670,1013.46,1111122 
COMPS,ioos:station:USF.COMPS:ARP:1,2014-07-01T07:36:00Z,28.4330,-82.6670,1013.72,1111122 
COMPS,ioos:station:USF.COMPS:ARP:1,2014-07-01T07:42:00Z,28.4330,-82.6670,1013.81,1111122 
COMPS,ioos:station:USF.COMPS:ARP:1,2014-07-01T07:48:00Z,28.4330,-82.6670,1013.72,1111122 
COMPS,ioos:station:USF.COMPS:ARP:1,2014-07-01T07:54:00Z,28.4330,-82.6670,1013.69,1111122 
COMPS,ioos:station:USF.COMPS:ARP:1,2014-07-01T08:00:00Z,28.4330,-82.6670,1013.7,1111122 
COMPS,ioos:station:USF.COMPS:ARP:1,2014-07-01T08:06:00Z,28.4330,-82.6670,1013.72,1111122 
COMPS,ioos:station:USF.COMPS:ARP:1,2014-07-01T08:12:00Z,28.4330,-82.6670,1013.58,1111122 
COMPS,ioos:station:USF.COMPS:ARP:1,2014-07-01T08:18:00Z,28.4330,-82.6670,1013.58,1111122 
COMPS,ioos:station:USF.COMPS:ARP:1,2014-07-01T08:24:00Z,28.4330,-82.6670,1013.4,1111122 
COMPS,ioos:station:USF.COMPS:ARP:1,2014-07-01T08:30:00Z,28.4330,-82.6670,1013.32,1111122 
COMPS,ioos:station:USF.COMPS:ARP:1,2014-07-01T08:36:00Z,28.4330,-82.6670,1013.3,1111122 
COMPS,ioos:station:USF.COMPS:ARP:1,2014-07-01T08:42:00Z,28.4330,-82.6670,1013.21,1111122 
COMPS,ioos:station:USF.COMPS:ARP:1,2014-07-01T08:48:00Z,28.4330,-82.6670,1013.26,1111122 
COMPS,ioos:station:USF.COMPS:ARP:1,2014-07-01T08:54:00Z,28.4330,-82.6670,1013.18,1111122 
COMPS,ioos:station:USF.COMPS:ARP:1,2014-07-01T09:00:00Z,28.4330,-82.6670,1013.17,1111122 
COMPS,ioos:station:USF.COMPS:ARP:1,2014-07-01T09:06:00Z,28.4330,-82.6670,1013.17,1111122 
COMPS,ioos:station:USF.COMPS:ARP:1,2014-07-01T09:12:00Z,28.4330,-82.6670,1013.04,1111122 
COMPS,ioos:station:USF.COMPS:ARP:1,2014-07-01T09:18:00Z,28.4330,-82.6670,1012.94,1111122 
COMPS,ioos:station:USF.COMPS:ARP:1,2014-07-01T09:24:00Z,28.4330,-82.6670,1012.89,1111122 
COMPS,ioos:station:USF.COMPS:ARP:1,2014-07-01T09:30:00Z,28.4330,-82.6670,1012.9,1111122 
COMPS,ioos:station:USF.COMPS:ARP:1,2014-07-01T09:36:00Z,28.4330,-82.6670,1012.98,1111122 
COMPS,ioos:station:USF.COMPS:ARP:1,2014-07-01T09:42:00Z,28.4330,-82.6670,1013.13,1111122 
COMPS,ioos:station:USF.COMPS:ARP:1,2014-07-01T09:48:00Z,28.4330,-82.6670,1013.06,1111122 
COMPS,ioos:station:USF.COMPS:ARP:1,2014-07-01T09:54:00Z,28.4330,-82.6670,1013.01,1111122 
COMPS,ioos:station:USF.COMPS:ARP:1,2014-07-01T10:00:00Z,28.4330,-82.6670,1012.9,1111122 
COMPS,ioos:station:USF.COMPS:ARP:1,2014-07-01T10:06:00Z,28.4330,-82.6670,1012.88,1111122 
COMPS,ioos:station:USF.COMPS:ARP:1,2014-07-01T10:12:00Z,28.4330,-82.6670,1013.01,1111122 
COMPS,ioos:station:USF.COMPS:ARP:1,2014-07-01T10:18:00Z,28.4330,-82.6670,1013.04,1111122 
COMPS,ioos:station:USF.COMPS:ARP:1,2014-07-01T10:24:00Z,28.4330,-82.6670,1013.0,1111122 
COMPS,ioos:station:USF.COMPS:ARP:1,2014-07-01T10:30:00Z,28.4330,-82.6670,1013.04,1111122 
COMPS,ioos:station:USF.COMPS:ARP:1,2014-07-01T10:36:00Z,28.4330,-82.6670,1013.09,1111122 
COMPS,ioos:station:USF.COMPS:ARP:1,2014-07-01T10:42:00Z,28.4330,-82.6670,1013.26,1111122 
COMPS,ioos:station:USF.COMPS:ARP:1,2014-07-01T10:48:00Z,28.4330,-82.6670,1013.28,1111122 
COMPS,ioos:station:USF.COMPS:ARP:1,2014-07-01T10:54:00Z,28.4330,-82.6670,1013.2,1111122 
COMPS,ioos:station:USF.COMPS:ARP:1,2014-07-01T11:00:00Z,28.4330,-82.6670,1013.33,1111122 
COMPS,ioos:station:USF.COMPS:ARP:1,2014-07-01T11:06:00Z,28.4330,-82.6670,1013.42,1111122 
COMPS,ioos:station:USF.COMPS:ARP:1,2014-07-01T11:12:00Z,28.4330,-82.6670,1013.46,1111122 
COMPS,ioos:station:USF.COMPS:ARP:1,2014-07-01T11:18:00Z,28.4330,-82.6670,1013.54,1111122 
COMPS,ioos:station:USF.COMPS:ARP:1,2014-07-01T11:24:00Z,28.4330,-82.6670,1013.56,1111122 
COMPS,ioos:station:USF.COMPS:ARP:1,2014-07-01T11:30:00Z,28.4330,-82.6670,1013.61,1111122 
COMPS,ioos:station:USF.COMPS:ARP:1,2014-07-01T11:36:00Z,28.4330,-82.6670,1013.73,1111122 
COMPS,ioos:station:USF.COMPS:ARP:1,2014-07-01T11:42:00Z,28.4330,-82.6670,1013.76,1111122 
COMPS,ioos:station:USF.COMPS:ARP:1,2014-07-01T11:48:00Z,28.4330,-82.6670,1013.77,1111122 
COMPS,ioos:station:USF.COMPS:ARP:1,2014-07-01T11:54:00Z,28.4330,-82.6670,1013.8,1111122 
COMPS,ioos:station:USF.COMPS:ARP:1,2014-07-01T12:00:00Z,28.4330,-82.6670,1013.82,1111122 
COMPS,ioos:station:USF.COMPS:ARP:1,2014-07-01T12:06:00Z,28.4330,-82.6670,1013.84,1111122 
COMPS,ioos:station:USF.COMPS:ARP:1,2014-07-01T12:12:00Z,28.4330,-82.6670,1013.97,1111122 
COMPS,ioos:station:USF.COMPS:ARP:1,2014-07-01T12:18:00Z,28.4330,-82.6670,1014.13,1111122 
COMPS,ioos:station:USF.COMPS:ARP:1,2014-07-01T12:24:00Z,28.4330,-82.6670,1014.21,1111122 
COMPS,ioos:station:USF.COMPS:ARP:1,2014-07-01T12:30:00Z,28.4330,-82.6670,1014.26,1111122 
COMPS,ioos:station:USF.COMPS:ARP:1,2014-07-01T12:36:00Z,28.4330,-82.6670,1014.29,1111122 
COMPS,ioos:station:USF.COMPS:ARP:1,2014-07-01T12:42:00Z,28.4330,-82.6670,1014.33,1111122 
COMPS,ioos:station:USF.COMPS:ARP:1,2014-07-01T12:48:00Z,28.4330,-82.6670,1014.41,1111122 
COMPS,ioos:station:USF.COMPS:ARP:1,2014-07-01T12:54:00Z,28.4330,-82.6670,1014.42,1111122 
COMPS,ioos:station:USF.COMPS:ARP:1,2014-07-01T13:00:00Z,28.4330,-82.6670,1014.5,1111122 
COMPS,ioos:station:USF.COMPS:ARP:1,2014-07-01T13:06:00Z,28.4330,-82.6670,1014.44,1111122 
COMPS,ioos:station:USF.COMPS:ARP:1,2014-07-01T13:12:00Z,28.4330,-82.6670,1014.4,1111122 
COMPS,ioos:station:USF.COMPS:ARP:1,2014-07-01T13:18:00Z,28.4330,-82.6670,1014.41,1111122 
COMPS,ioos:station:USF.COMPS:ARP:1,2014-07-01T13:24:00Z,28.4330,-82.6670,1014.5,1111122 
COMPS,ioos:station:USF.COMPS:ARP:1,2014-07-01T13:30:00Z,28.4330,-82.6670,1014.49,1111122 
COMPS,ioos:station:USF.COMPS:ARP:1,2014-07-01T13:36:00Z,28.4330,-82.6670,1014.44,1111122 
COMPS,ioos:station:USF.COMPS:ARP:1,2014-07-01T13:42:00Z,28.4330,-82.6670,1014.41,1111122 
COMPS,ioos:station:USF.COMPS:ARP:1,2014-07-01T13:48:00Z,28.4330,-82.6670,1014.4,1111122 
COMPS,ioos:station:USF.COMPS:ARP:1,2014-07-01T13:54:00Z,28.4330,-82.6670,1014.49,1111122 
COMPS,ioos:station:USF.COMPS:ARP:1,2014-07-01T14:00:00Z,28.4330,-82.6670,1014.49,1111122 
COMPS,ioos:station:USF.COMPS:ARP:1,2014-07-01T14:06:00Z,28.4330,-82.6670,1014.52,1111122 
COMPS,ioos:station:USF.COMPS:ARP:1,2014-07-01T14:12:00Z,28.4330,-82.6670,1014.53,1111122 
COMPS,ioos:station:USF.COMPS:ARP:1,2014-07-01T14:18:00Z,28.4330,-82.6670,1014.48,1111122 
COMPS,ioos:station:USF.COMPS:ARP:1,2014-07-01T14:24:00Z,28.4330,-82.6670,1014.36,1111122 
COMPS,ioos:station:USF.COMPS:ARP:1,2014-07-01T14:30:00Z,28.4330,-82.6670,1014.33,1111122 
COMPS,ioos:station:USF.COMPS:ARP:1,2014-07-01T14:36:00Z,28.4330,-82.6670,1014.28,1111122 
COMPS,ioos:station:USF.COMPS:ARP:1,2014-07-01T14:42:00Z,28.4330,-82.6670,1014.28,1111122 
COMPS,ioos:station:USF.COMPS:ARP:1,2014-07-01T14:48:00Z,28.4330,-82.6670,1014.29,1111122 
COMPS,ioos:station:USF.COMPS:ARP:1,2014-07-01T14:54:00Z,28.4330,-82.6670,1014.26,1111122 
COMPS,ioos:station:USF.COMPS:ARP:1,2014-07-01T15:00:00Z,28.4330,-82.6670,1014.3,1111122 
COMPS,ioos:station:USF.COMPS:ARP:1,2014-07-01T15:06:00Z,28.4330,-82.6670,1014.34,1111122 
COMPS,ioos:station:USF.COMPS:ARP:1,2014-07-01T15:12:00Z,28.4330,-82.6670,1014.37,1111122 
COMPS,ioos:station:USF.COMPS:ARP:1,2014-07-01T15:18:00Z,28.4330,-82.6670,1014.38,1111122 
COMPS,ioos:station:USF.COMPS:ARP:1,2014-07-01T15:24:00Z,28.4330,-82.6670,1014.32,1111122 
COMPS,ioos:station:USF.COMPS:ARP:1,2014-07-01T15:30:00Z,28.4330,-82.6670,1014.18,1111122 
COMPS,ioos:station:USF.COMPS:ARP:1,2014-07-01T15:36:00Z,28.4330,-82.6670,1014.16,1111122 
COMPS,ioos:station:USF.COMPS:ARP:1,2014-07-01T15:42:00Z,28.4330,-82.6670,1014.2,1111122 
COMPS,ioos:station:USF.COMPS:ARP:1,2014-07-01T15:48:00Z,28.4330,-82.6670,1014.18,1111122 
COMPS,ioos:station:USF.COMPS:ARP:1,2014-07-01T15:54:00Z,28.4330,-82.6670,1014.16,1111122 
COMPS,ioos:station:USF.COMPS:ARP:1,2014-07-01T16:00:00Z,28.4330,-82.6670,1013.94,1111122 
COMPS,ioos:station:USF.COMPS:ARP:1,2014-07-01T16:06:00Z,28.4330,-82.6670,1013.84,1111122 
COMPS,ioos:station:USF.COMPS:ARP:1,2014-07-01T16:12:00Z,28.4330,-82.6670,1013.84,1111122 
COMPS,ioos:station:USF.COMPS:ARP:1,2014-07-01T16:18:00Z,28.4330,-82.6670,1013.84,1111122 
COMPS,ioos:station:USF.COMPS:ARP:1,2014-07-01T16:24:00Z,28.4330,-82.6670,1013.8,1111122 
COMPS,ioos:station:USF.COMPS:ARP:1,2014-07-01T16:30:00Z,28.4330,-82.6670,1013.8,1111122 
COMPS,ioos:station:USF.COMPS:ARP:1,2014-07-01T16:36:00Z,28.4330,-82.6670,1013.72,1111122 
COMPS,ioos:station:USF.COMPS:ARP:1,2014-07-01T16:42:00Z,28.4330,-82.6670,1013.7,1111122 
COMPS,ioos:station:USF.COMPS:ARP:1,2014-07-01T16:48:00Z,28.4330,-82.6670,1013.74,1111122 
COMPS,ioos:station:USF.COMPS:ARP:1,2014-07-01T16:54:00Z,28.4330,-82.6670,1013.74,1111122 
COMPS,ioos:station:USF.COMPS:ARP:1,2014-07-01T17:00:00Z,28.4330,-82.6670,1013.7,1111122 
COMPS,ioos:station:USF.COMPS:ARP:1,2014-07-01T17:06:00Z,28.4330,-82.6670,1013.7,1111122 
COMPS,ioos:station:USF.COMPS:ARP:1,2014-07-01T17:12:00Z,28.4330,-82.6670,1013.6,1111122 
COMPS,ioos:station:USF.COMPS:ARP:1,2014-07-01T17:18:00Z,28.4330,-82.6670,1013.57,1111122 
COMPS,ioos:station:USF.COMPS:ARP:1,2014-07-01T17:24:00Z,28.4330,-82.6670,1013.48,1111122 
COMPS,ioos:station:USF.COMPS:ARP:1,2014-07-01T17:30:00Z,28.4330,-82.6670,1013.41,1111122 
COMPS,ioos:station:USF.COMPS:ARP:1,2014-07-01T17:36:00Z,28.4330,-82.6670,1013.46,1111122 
COMPS,ioos:station:USF.COMPS:ARP:1,2014-07-01T17:42:00Z,28.4330,-82.6670,1013.46,1111122 
COMPS,ioos:station:USF.COMPS:ARP:1,2014-07-01T17:48:00Z,28.4330,-82.6670,1013.5,1111122 
COMPS,ioos:station:USF.COMPS:ARP:1,2014-07-01T17:54:00Z,28.4330,-82.6670,1013.53,1111122 
COMPS,ioos:station:USF.COMPS:ARP:1,2014-07-01T18:00:00Z,28.4330,-82.6670,1013.54,1111122 
COMPS,ioos:station:USF.COMPS:ARP:1,2014-07-01T18:06:00Z,28.4330,-82.6670,1013.56,1111122 
COMPS,ioos:station:USF.COMPS:ARP:1,2014-07-01T18:12:00Z,28.4330,-82.6670,1013.58,1111122 
COMPS,ioos:station:USF.COMPS:ARP:1,2014-07-01T18:18:00Z,28.4330,-82.6670,1013.56,1111122 
COMPS,ioos:station:USF.COMPS:ARP:1,2014-07-01T18:24:00Z,28.4330,-82.6670,1013.46,1111122 
COMPS,ioos:station:USF.COMPS:ARP:1,2014-07-01T18:30:00Z,28.4330,-82.6670,1013.41,1111122 
COMPS,ioos:station:USF.COMPS:ARP:1,2014-07-01T18:36:00Z,28.4330,-82.6670,1013.3,1111122 
COMPS,ioos:station:USF.COMPS:ARP:1,2014-07-01T18:42:00Z,28.4330,-82.6670,1013.21,1111122 
COMPS,ioos:station:USF.COMPS:ARP:1,2014-07-01T18:48:00Z,28.4330,-82.6670,1013.17,1111122 
COMPS,ioos:station:USF.COMPS:ARP:1,2014-07-01T18:54:00Z,28.4330,-82.6670,1013.1,1111122 
COMPS,ioos:station:USF.COMPS:ARP:1,2014-07-01T19:00:00Z,28.4330,-82.6670,1012.98,1111122 
COMPS,ioos:station:USF.COMPS:ARP:1,2014-07-01T19:06:00Z,28.4330,-82.6670,1012.86,1111122 
COMPS,ioos:station:USF.COMPS:ARP:1,2014-07-01T19:12:00Z,28.4330,-82.6670,1012.74,1111122 
COMPS,ioos:station:USF.COMPS:ARP:1,2014-07-01T19:18:00Z,28.4330,-82.6670,1012.58,1111122 
COMPS,ioos:station:USF.COMPS:ARP:1,2014-07-01T19:24:00Z,28.4330,-82.6670,1012.46,1111122 
COMPS,ioos:station:USF.COMPS:ARP:1,2014-07-01T19:30:00Z,28.4330,-82.6670,1012.34,1111122 
COMPS,ioos:station:USF.COMPS:ARP:1,2014-07-01T19:36:00Z,28.4330,-82.6670,1012.21,1111122 
COMPS,ioos:station:USF.COMPS:ARP:1,2014-07-01T19:42:00Z,28.4330,-82.6670,1012.13,1111122 
COMPS,ioos:station:USF.COMPS:ARP:1,2014-07-01T19:48:00Z,28.4330,-82.6670,1012.04,1111122 
COMPS,ioos:station:USF.COMPS:ARP:1,2014-07-01T19:54:00Z,28.4330,-82.6670,1012.01,1111122 
COMPS,ioos:station:USF.COMPS:ARP:1,2014-07-01T20:00:00Z,28.4330,-82.6670,1011.94,1111122 
COMPS,ioos:station:USF.COMPS:ARP:1,2014-07-01T20:06:00Z,28.4330,-82.6670,1011.92,1111122 
COMPS,ioos:station:USF.COMPS:ARP:1,2014-07-01T20:12:00Z,28.4330,-82.6670,1011.8,1111122 
COMPS,ioos:station:USF.COMPS:ARP:1,2014-07-01T20:18:00Z,28.4330,-82.6670,1011.81,1111122 
COMPS,ioos:station:USF.COMPS:ARP:1,2014-07-01T20:24:00Z,28.4330,-82.6670,1011.88,1111122 
COMPS,ioos:station:USF.COMPS:ARP:1,2014-07-01T20:30:00Z,28.4330,-82.6670,1011.88,1111122 
COMPS,ioos:station:USF.COMPS:ARP:1,2014-07-01T20:36:00Z,28.4330,-82.6670,1011.77,1111122 
COMPS,ioos:station:USF.COMPS:ARP:1,2014-07-01T20:42:00Z,28.4330,-82.6670,1011.73,1111122 
COMPS,ioos:station:USF.COMPS:ARP:1,2014-07-01T20:48:00Z,28.4330,-82.6670,1011.66,1111122 
COMPS,ioos:station:USF.COMPS:ARP:1,2014-07-01T20:54:00Z,28.4330,-82.6670,1011.65,1111122 
COMPS,ioos:station:USF.COMPS:ARP:1,2014-07-01T21:00:00Z,28.4330,-82.6670,1011.57,1111122 
COMPS,ioos:station:USF.COMPS:ARP:1,2014-07-01T21:06:00Z,28.4330,-82.6670,1011.5,1111122 
COMPS,ioos:station:USF.COMPS:ARP:1,2014-07-01T21:12:00Z,28.4330,-82.6670,1011.46,1111122 
COMPS,ioos:station:USF.COMPS:ARP:1,2014-07-01T21:18:00Z,28.4330,-82.6670,1011.37,1111122 
COMPS,ioos:station:USF.COMPS:ARP:1,2014-07-01T21:24:00Z,28.4330,-82.6670,1011.38,1111122 
COMPS,ioos:station:USF.COMPS:ARP:1,2014-07-01T21:30:00Z,28.4330,-82.6670,1011.38,1111122 
COMPS,ioos:station:USF.COMPS:ARP:1,2014-07-01T21:36:00Z,28.4330,-82.6670,1011.32,1111122 
COMPS,ioos:station:USF.COMPS:ARP:1,2014-07-01T21:42:00Z,28.4330,-82.6670,1011.2,1111122 
COMPS,ioos:station:USF.COMPS:ARP:1,2014-07-01T21:48:00Z,28.4330,-82.6670,1011.05,1111122 
COMPS,ioos:station:USF.COMPS:ARP:1,2014-07-01T21:54:00Z,28.4330,-82.6670,1010.88,1111122 
COMPS,ioos:station:USF.COMPS:ARP:1,2014-07-01T22:00:00Z,28.4330,-82.6670,1010.92,1111122 
COMPS,ioos:station:USF.COMPS:ARP:1,2014-07-01T22:06:00Z,28.4330,-82.6670,1010.86,1111122 
COMPS,ioos:station:USF.COMPS:ARP:1,2014-07-01T22:12:00Z,28.4330,-82.6670,1010.77,1111122 
COMPS,ioos:station:USF.COMPS:ARP:1,2014-07-01T22:18:00Z,28.4330,-82.6670,1010.8,1111122 
COMPS,ioos:station:USF.COMPS:ARP:1,2014-07-01T22:24:00Z,28.4330,-82.6670,1010.94,1111122 
COMPS,ioos:station:USF.COMPS:ARP:1,2014-07-01T22:30:00Z,28.4330,-82.6670,1011.06,1111122 
COMPS,ioos:station:USF.COMPS:ARP:1,2014-07-01T22:36:00Z,28.4330,-82.6670,1011.09,1111122 
COMPS,ioos:station:USF.COMPS:ARP:1,2014-07-01T22:42:00Z,28.4330,-82.6670,1011.17,1111122 
COMPS,ioos:station:USF.COMPS:ARP:1,2014-07-01T22:48:00Z,28.4330,-82.6670,1011.2,1111122 
COMPS,ioos:station:USF.COMPS:ARP:1,2014-07-01T22:54:00Z,28.4330,-82.6670,1011.06,1111122 
COMPS,ioos:station:USF.COMPS:ARP:1,2014-07-01T23:00:00Z,28.4330,-82.6670,1011.12,1111122 
COMPS,ioos:station:USF.COMPS:ARP:1,2014-07-01T23:06:00Z,28.4330,-82.6670,1011.33,1111122 
COMPS,ioos:station:USF.COMPS:ARP:1,2014-07-01T23:12:00Z,28.4330,-82.6670,1011.41,1111122 
COMPS,ioos:station:USF.COMPS:ARP:1,2014-07-01T23:18:00Z,28.4330,-82.6670,1011.4,1111122 
COMPS,ioos:station:USF.COMPS:ARP:1,2014-07-01T23:24:00Z,28.4330,-82.6670,1011.52,1111122 
COMPS,ioos:station:USF.COMPS:ARP:1,2014-07-01T23:30:00Z,28.4330,-82.6670,1011.66,1111122 
COMPS,ioos:station:USF.COMPS:ARP:1,2014-07-01T23:36:00Z,28.4330,-82.6670,1011.65,1111122 
COMPS,ioos:station:USF.COMPS:ARP:1,2014-07-01T23:42:00Z,28.4330,-82.6670,1011.54,1111122 
COMPS,ioos:station:USF.COMPS:ARP:1,2014-07-01T23:48:00Z,28.4330,-82.6670,1011.42,1111122 
COMPS,ioos:station:USF.COMPS:ARP:1,2014-07-01T23:54:00Z,28.4330,-82.6670,1011.37,1111122 
COMPS,ioos:station:USF.COMPS:ARP:1,2014-07-02T00:00:00Z,28.4330,-82.6670,1011.37,1111122 
COMPS,ioos:station:USF.COMPS:ARP:1,2014-07-02T00:06:00Z,28.4330,-82.6670,1011.5,1111122 
COMPS,ioos:station:USF.COMPS:ARP:1,2014-07-02T00:12:00Z,28.4330,-82.6670,1011.73,1111122 
COMPS,ioos:station:USF.COMPS:ARP:1,2014-07-02T00:18:00Z,28.4330,-82.6670,1011.68,1111122 
COMPS,ioos:station:USF.COMPS:ARP:1,2014-07-02T00:24:00Z,28.4330,-82.6670,1011.57,1111122 
COMPS,ioos:station:USF.COMPS:ARP:1,2014-07-02T00:30:00Z,28.4330,-82.6670,1011.58,1111122 
COMPS,ioos:station:USF.COMPS:ARP:1,2014-07-02T00:36:00Z,28.4330,-82.6670,1011.72,1111122 
COMPS,ioos:station:USF.COMPS:ARP:1,2014-07-02T00:42:00Z,28.4330,-82.6670,1011.78,1111122 
COMPS,ioos:station:USF.COMPS:ARP:1,2014-07-02T00:48:00Z,28.4330,-82.6670,1011.85,1111122 
COMPS,ioos:station:USF.COMPS:ARP:1,2014-07-02T00:54:00Z,28.4330,-82.6670,1011.96,1111122 
COMPS,ioos:station:USF.COMPS:ARP:1,2014-07-02T01:00:00Z,28.4330,-82.6670,1012.16,1111122 
COMPS,ioos:station:USF.COMPS:ARP:1,2014-07-02T01:06:00Z,28.4330,-82.6670,1012.29,1111122 
COMPS,ioos:station:USF.COMPS:ARP:1,2014-07-02T01:12:00Z,28.4330,-82.6670,1012.52,1111122 
COMPS,ioos:station:USF.COMPS:ARP:1,2014-07-02T01:18:00Z,28.4330,-82.6670,1012.66,1111122 
COMPS,ioos:station:USF.COMPS:ARP:1,2014-07-02T01:24:00Z,28.4330,-82.6670,1012.64,1111122 
COMPS,ioos:station:USF.COMPS:ARP:1,2014-07-02T01:30:00Z,28.4330,-82.6670,1012.69,1111122 
COMPS,ioos:station:USF.COMPS:ARP:1,2014-07-02T01:36:00Z,28.4330,-82.6670,1012.85,1111122 
COMPS,ioos:station:USF.COMPS:ARP:1,2014-07-02T01:42:00Z,28.4330,-82.6670,1013.01,1111122 
COMPS,ioos:station:USF.COMPS:ARP:1,2014-07-02T01:48:00Z,28.4330,-82.6670,1012.96,1111122 
COMPS,ioos:station:USF.COMPS:ARP:1,2014-07-02T01:54:00Z,28.4330,-82.6670,1013.04,1111122 
COMPS,ioos:station:USF.COMPS:ARP:1,2014-07-02T02:00:00Z,28.4330,-82.6670,1013.05,1111122 
COMPS,ioos:station:USF.COMPS:ARP:1,2014-07-02T02:06:00Z,28.4330,-82.6670,1013.09,1111122 
COMPS,ioos:station:USF.COMPS:ARP:1,2014-07-02T02:12:00Z,28.4330,-82.6670,1013.17,1111122 
COMPS,ioos:station:USF.COMPS:ARP:1,2014-07-02T02:18:00Z,28.4330,-82.6670,1013.28,1111122 
COMPS,ioos:station:USF.COMPS:ARP:1,2014-07-02T02:24:00Z,28.4330,-82.6670,1013.44,1111122 
COMPS,ioos:station:USF.COMPS:ARP:1,2014-07-02T02:30:00Z,28.4330,-82.6670,1013.44,1111122 